When you browse on this site, cookies collect data to enhance your experience and personalize the content and advertising you see.
Visit our Privacy Policy to learn more. By continuing to use the site, you agree to this use of cookies and data.
  • In Hungary
  • List of Countries
  • For 7 days
  • Water Temperature
  • Weather Map
  • News
  • Weather Widgets
  • user-avatar
    Login

    Hourly Weather Bosanski Brod

    Today, 13 November, Wednesday

    Time Temperature Precipitation Wind Pressure Humidity
    00:00 +14°C° 0 mm 3 mps 743 mmHg 70%
    01:00 +13°C° 0 mm 3 mps 743 mmHg 70%
    02:00 +13°C° 0 mm 3 mps 742 mmHg 72%
    03:00 +13°C° 0 mm 3 mps 742 mmHg 74%
    04:00 +13°C° 0 mm 3 mps 742 mmHg 76%
    05:00 +13°C° 0 mm 3 mps 741 mmHg 75%
    06:00 +13°C° 0 mm 3 mps 741 mmHg 74%
    07:00 +13°C° 0 mm 4 mps 741 mmHg 74%
    08:00 +13°C° 0.1 mm 5 mps 740 mmHg 70%
    09:00 +14°C° 0.1 mm 5 mps 740 mmHg 66%
    10:00 +15°C° 0.1 mm 6 mps 739 mmHg 62%
    11:00 +15°C° 0.5 mm 6 mps 739 mmHg 62%
    12:00 +16°C° 0.5 mm 5 mps 739 mmHg 62%
    13:00 +17°C° 0.5 mm 5 mps 739 mmHg 62%
    14:00 +17°C° 0 mm 4 mps 740 mmHg 65%
    15:00 +17°C° 0 mm 4 mps 740 mmHg 67%
    16:00 +17°C° 0 mm 3 mps 740 mmHg 70%
    17:00 +16°C° 1.2 mm 3 mps 741 mmHg 76%
    18:00 +15°C° 1.2 mm 2 mps 742 mmHg 82%
    19:00 +15°C° 1.2 mm 2 mps 743 mmHg 88%
    20:00 +14°C° 0.7 mm 2 mps 743 mmHg 87%
    21:00 +14°C° 0.7 mm 1 mps 744 mmHg 87%
    22:00 +14°C° 0.7 mm 1 mps 745 mmHg 86%
    23:00 +13°C° 0 mm 1 mps 746 mmHg 86%

    Tomorrow, 14 November, Thursday

    Time Temperature Precipitation Wind Pressure Humidity
    00:00 +13°C° 0 mm 1 mps 746 mmHg 87%
    01:00 +13°C° 0 mm 1 mps 747 mmHg 87%
    02:00 +12°C° 0 mm 1 mps 747 mmHg 89%
    03:00 +12°C° 0 mm 1 mps 747 mmHg 90%
    04:00 +11°C° 0 mm 1 mps 747 mmHg 92%
    05:00 +11°C° 0 mm 1 mps 748 mmHg 92%
    06:00 +11°C° 0 mm 1 mps 748 mmHg 91%
    07:00 +10°C° 0 mm 1 mps 748 mmHg 91%
    08:00 +11°C° 0 mm 1 mps 748 mmHg 87%
    09:00 +12°C° 0 mm 1 mps 749 mmHg 83%
    10:00 +13°C° 0 mm 1 mps 749 mmHg 79%
    11:00 +14°C° 0 mm 1 mps 749 mmHg 75%
    12:00 +15°C° 0 mm 1 mps 749 mmHg 71%
    13:00 +16°C° 0 mm 1 mps 749 mmHg 67%
    14:00 +15°C° 0 mm 1 mps 749 mmHg 69%
    15:00 +14°C° 0 mm 1 mps 749 mmHg 72%
    16:00 +14°C° 0 mm 1 mps 748 mmHg 75%
    17:00 +13°C° 0 mm 1 mps 749 mmHg 77%
    18:00 +13°C° 0 mm 1 mps 749 mmHg 80%
    19:00 +12°C° 0 mm 1 mps 749 mmHg 82%
    20:00 +12°C° 0 mm 1 mps 750 mmHg 83%
    21:00 +11°C° 0 mm 1 mps 750 mmHg 84%
    22:00 +11°C° 0 mm 1 mps 750 mmHg 85%
    23:00 +11°C° 0 mm 1 mps 750 mmHg 86%

    Day after tomorrow, 15 November, Friday

    Time Temperature Precipitation Wind Pressure Humidity
    00:00 +11°C° 0 mm 1 mps 750 mmHg 86%
    01:00 +10°C° 0 mm 1 mps 750 mmHg 86%
    02:00 +10°C° 0 mm 1 mps 750 mmHg 86%
    03:00 +10°C° 0 mm 1 mps 750 mmHg 86%
    04:00 +10°C° 0 mm 1 mps 749 mmHg 86%
    05:00 +9°C° 0 mm 1 mps 749 mmHg 85%
    06:00 +9°C° 0 mm 1 mps 750 mmHg 85%
    07:00 +9°C° 0 mm 1 mps 750 mmHg 84%
    08:00 +11°C° 0 mm 1 mps 749 mmHg 78%
    09:00 +13°C° 0 mm 2 mps 749 mmHg 71%
    10:00 +14°C° 0 mm 2 mps 750 mmHg 64%
    11:00 +16°C° 0 mm 2 mps 750 mmHg 62%
    12:00 +17°C° 0 mm 2 mps 750 mmHg 59%
    13:00 +18°C° 0 mm 2 mps 750 mmHg 56%
    14:00 +17°C° 0 mm 2 mps 749 mmHg 59%
    15:00 +17°C° 0 mm 2 mps 749 mmHg 62%
    16:00 +16°C° 0 mm 2 mps 749 mmHg 66%
    17:00 +16°C° 0 mm 2 mps 750 mmHg 67%
    18:00 +15°C° 0 mm 2 mps 750 mmHg 69%
    19:00 +15°C° 0 mm 2 mps 750 mmHg 70%
    20:00 +13°C° 0 mm 3 mps 750 mmHg 71%
    21:00 +13°C° 0 mm 3 mps 750 mmHg 72%
    22:00 +13°C° 0 mm 3 mps 750 mmHg 72%
    23:00 +13°C° 0 mm 3 mps 751 mmHg 73%

    16 November, Saturday

    Time Temperature Precipitation Wind Pressure Humidity
    00:00 +13°C° 0 mm 3 mps 751 mmHg 74%
    01:00 +13°C° 0 mm 2 mps 751 mmHg 75%
    02:00 +13°C° 0 mm 2 mps 751 mmHg 76%
    03:00 +13°C° 0 mm 2 mps 751 mmHg 76%
    04:00 +13°C° 0 mm 2 mps 752 mmHg 76%
    05:00 +13°C° 0 mm 2 mps 752 mmHg 76%
    06:00 +13°C° 0 mm 2 mps 752 mmHg 76%
    07:00 +13°C° 0 mm 2 mps 752 mmHg 75%
    08:00 +14°C° 0 mm 2 mps 753 mmHg 71%
    09:00 +15°C° 0 mm 2 mps 753 mmHg 67%
    10:00 +17°C° 0 mm 2 mps 753 mmHg 63%
    11:00 +18°C° 0 mm 2 mps 753 mmHg 61%
    12:00 +18°C° 0 mm 2 mps 753 mmHg 58%
    13:00 +19°C° 0 mm 2 mps 753 mmHg 55%
    14:00 +19°C° 0 mm 2 mps 752 mmHg 59%
    15:00 +18°C° 0 mm 2 mps 752 mmHg 62%
    16:00 +17°C° 0 mm 2 mps 752 mmHg 66%
    17:00 +16°C° 0 mm 2 mps 752 mmHg 69%
    18:00 +15°C° 0 mm 1 mps 752 mmHg 72%
    19:00 +14°C° 0 mm 1 mps 752 mmHg 75%
    20:00 +14°C° 0 mm 1 mps 752 mmHg 77%
    21:00 +13°C° 0 mm 1 mps 752 mmHg 79%
    22:00 +13°C° 0 mm 1 mps 752 mmHg 82%
    23:00 +12°C° 0 mm 1 mps 751 mmHg 84%

    17 November, Sunday

    Time Temperature Precipitation Wind Pressure Humidity
    00:00 +12°C° 0 mm 1 mps 751 mmHg 86%
    01:00 +12°C° 0 mm 1 mps 751 mmHg 88%
    02:00 +11°C° 0 mm 1 mps 751 mmHg 88%
    03:00 +11°C° 0 mm 1 mps 750 mmHg 89%
    04:00 +11°C° 0 mm 1 mps 750 mmHg 89%
    05:00 +10°C° 0 mm 2 mps 750 mmHg 89%
    06:00 +10°C° 0 mm 2 mps 750 mmHg 89%
    07:00 +9°C° 0 mm 2 mps 750 mmHg 89%
    08:00 +12°C° 0 mm 2 mps 750 mmHg 82%
    09:00 +13°C° 0 mm 2 mps 750 mmHg 75%
    10:00 +13°C° 0 mm 3 mps 750 mmHg 69%
    11:00 +16°C° 0 mm 3 mps 749 mmHg 63%
    12:00 +17°C° 0 mm 3 mps 749 mmHg 58%
    13:00 +18°C° 0 mm 4 mps 748 mmHg 53%
    14:00 +18°C° 0 mm 4 mps 748 mmHg 55%
    15:00 +17°C° 0 mm 4 mps 748 mmHg 57%
    16:00 +15°C° 0 mm 5 mps 747 mmHg 59%
    17:00 +15°C° 0 mm 4 mps 748 mmHg 61%
    18:00 +14°C° 0 mm 4 mps 748 mmHg 63%
    19:00 +14°C° 0 mm 4 mps 748 mmHg 65%
    20:00 +13°C° 0 mm 4 mps 749 mmHg 67%
    21:00 +13°C° 0 mm 3 mps 749 mmHg 69%
    22:00 +12°C° 0 mm 3 mps 749 mmHg 71%
    23:00 +12°C° 0 mm 3 mps 749 mmHg 72%

    18 November, Monday

    Time Temperature Precipitation Wind Pressure Humidity
    00:00 +12°C° 0 mm 3 mps 749 mmHg 72%
    01:00 +13°C° 0 mm 2 mps 749 mmHg 73%
    02:00 +13°C° 0 mm 2 mps 749 mmHg 75%
    03:00 +12°C° 0 mm 2 mps 750 mmHg 76%
    04:00 +12°C° 0 mm 1 mps 750 mmHg 78%
    05:00 +12°C° 0 mm 1 mps 750 mmHg 78%
    06:00 +12°C° 0 mm 1 mps 750 mmHg 77%
    07:00 +12°C° 0 mm 1 mps 751 mmHg 77%
    08:00 +13°C° 0 mm 1 mps 751 mmHg 70%
    09:00 +14°C° 0 mm 2 mps 752 mmHg 63%
    10:00 +16°C° 0 mm 2 mps 752 mmHg 57%
    11:00 +16°C° 0 mm 2 mps 752 mmHg 52%
    12:00 +17°C° 0 mm 2 mps 752 mmHg 48%
    13:00 +18°C° 0 mm 2 mps 752 mmHg 43%
    14:00 +17°C° 0 mm 2 mps 752 mmHg 47%
    15:00 +16°C° 0 mm 2 mps 752 mmHg 50%
    16:00 +15°C° 0 mm 1 mps 752 mmHg 53%
    17:00 +14°C° 0 mm 1 mps 753 mmHg 55%
    18:00 +14°C° 0 mm 1 mps 753 mmHg 57%
    19:00 +13°C° 0 mm 1 mps 753 mmHg 59%
    20:00 +12°C° 0 mm 1 mps 753 mmHg 61%
    21:00 +12°C° 0 mm 1 mps 753 mmHg 63%
    22:00 +12°C° 0 mm 1 mps 754 mmHg 65%
    23:00 +11°C° 0 mm 1 mps 753 mmHg 68%
    Show more